RH
26 20 25 29 30 31 31 31 31 29 30 28 25 22 27 36 39 42 45 47 46 48 47 48 52 52 49 51 50 54 50 46 48 48 55 56 56 51 54 54 58 56 55 54 51 51 54
32 26 20 22 27 35 33 28 32 28 28 32 29 23 23 31 40 44 49 52 53 52 51 52 56 60 58 58 52 50 56 52 52 57 57 59 61 56 52 55 60 61 58 56 56 54 55
40 33 27 24 21 29 35 34 35 34 30 31 31 26 23 25 35 42 50 55 57 58 56 55 58 60 63 56 57 56 58 58 58 55 61 61 60 65 59 56 59 62 64 61 55 56 58
47 41 34 30 28 26 32 35 35 37 36 33 29 31 26 24 29 38 48 61 60 63 62 58 56 64 65 60 59 57 55 53 51 52 53 58 66 64 66 67 64 66 69 64 48 56 54
52 49 41 33 32 36 39 33 34 37 38 39 35 34 34 26 29 34 47 59 64 65 69 65 58 64 62 58 58 58 62 60 57 53 52 50 60 60 69 69 74 67 65 57 55 56 58
60 58 51 42 31 32 40 41 37 34 39 41 40 38 41 29 31 35 41 55 65 65 70 72 69 71 62 66 66 63 63 65 64 61 59 60 60 59 61 67 65 60 69 54 58 54 57
57 60 66 55 42 32 38 40 41 41 37 42 43 36 42 33 32 36 42 54 57 64 69 70 71 66 69 70 70 67 66 68 69 66 67 64 67 59 50 50 48 58 65 68 54 55 61
41 56 62 66 57 43 35 37 42 45 44 40 45 39 40 36 36 38 42 52 63 66 68 72 73 72 71 79 76 73 74 75 73 72 71 77 67 43 51 54 58 56 72 70 66 64 64
24 42 61 77 76 57 41 41 42 50 52 49 44 44 41 39 43 42 41 51 65 67 72 70 69 72 81 84 83 82 82 81 78 77 74 76 52 65 61 59 64 58 63 69 76 68 69
24 28 55 79 85 71 57 45 49 51 52 58 49 51 45 46 48 47 49 48 60 72 74 67 70 79 86 90 87 88 90 89 85 76 80 79 63 63 66 61 59 60 48 67 75 87 78
36 26 38 62 67 82 71 59 54 58 60 67 53 55 52 52 60 62 55 59 67 79 78 67 80 86 88 91 92 87 93 95 90 83 84 76 69 63 68 67 62 53 57 74 79 90 89
45 43 35 56 86 77 86 71 63 63 65 71 67 58 59 61 65 68 59 59 71 79 75 77 89 91 92 92 94 94 91 96 91 90 84 75 77 76 65 75 78 61 63 86 90 90 90
54 57 47 32 80 98 99 85 70 68 68 73 72 62 66 68 72 75 62 66 78 77 65 93 94 93 93 93 93 97 94 92 88 93 87 89 83 78 84 91 81 78 80 93 99 98 92
60 62 57 39 92 99 99 85 72 74 73 83 68 66 70 73 78 79 75 71 77 54 76 96 97 96 96 92 91 98 98 88 80 80 86 84 82 80 76 86 72 82 95 99 95 97 67
72 69 65 49 76 98 98 94 79 81 78 84 68 69 71 77 82 83 80 76 59 64 94 97 98 98 87 85 97 97 91 90 73 75 91 92 90 84 75 77 88 84 98 89 90 62 62
82 77 74 72 97 98 99 96 82 82 82 81 69 72 73 83 85 84 82 73 61 82 97 97 97 86 69 82 92 90 87 75 75 79 86 92 98 94 95 93 89 83 86 98 89 68 76
81 78 73 76 95 98 99 94 84 98 90 79 75 75 75 85 85 83 81 66 72 94 96 97 86 70 62 72 71 71 61 66 75 75 90 96 98 95 87 83 92 98 98 90 76 74 68
76 83 76 84 95 97 98 93 91 98 95 77 76 75 76 84 84 80 80 69 96 96 97 96 78 68 58 70 67 73 75 84 75 79 94 96 98 92 88 78 82 91 90 78 71 70 66
76 84 91 95 97 98 97 89 96 98 85 73 76 77 78 82 81 80 77 83 97 97 97 90 67 49 48 63 65 61 74 77 79 85 85 97 98 96 95 95 97 96 90 73 68 69 67
75 85 96 98 97 97 96 98 98 93 75 73 77 79 81 82 80 84 80 87 97 97 96 84 56 48 50 52 58 78 71 77 76 77 83 97 92 98 98 81 79 92 82 72 71 69 63
69 79 94 96 98 98 99 96 98 92 71 75 76 75 77 80 84 80 85 90 97 98 97 81 57 47 49 58 61 65 74 70 72 74 83 95 96 95 83 76 75 76 75 71 68 62 62
57 74 89 96 94 98 95 91 97 93 73 76 75 74 80 80 82 82 77 76 97 97 97 87 70 64 54 59 57 59 65 74 75 80 80 84 89 80 74 68 68 72 72 68 64 66 63
43 67 87 96 97 95 97 99 98 88 73 73 75 73 77 79 83 82 74 76 95 96 96 93 79 75 67 62 63 56 62 64 81 79 80 80 86 79 71 62 62 66 61 61 60 61 58
35 51 78 92 93 94 94 97 98 83 73 74 75 78 82 82 74 69 64 75 94 96 97 94 89 84 78 72 68 68 69 72 78 80 75 74 76 77 70 62 71 56 52 50 52 53 50
40 64 78 88 93 94 94 98 98 78 73 73 77 81 83 82 80 59 57 77 91 98 98 96 95 90 84 75 80 82 83 85 82 80 78 79 81 83 81 79 68 59 54 51 51 50 48
47 67 76 84 89 94 95 98 95 83 76 78 80 80 83 83 80 60 58 81 96 98 98 97 95 95 95 87 83 87 83 91 88 85 83 84 84 88 88 82 81 63 55 51 50 56 50
38 64 72 84 91 92 93 95 88 82 76 78 78 79 84 85 85 63 66 82 94 97 97 96 95 97 97 95 87 85 85 78 86 81 86 88 90 92 90 90 77 64 60 55 58 58 50
32 59 72 81 90 94 94 93 93 88 77 78 76 78 82 84 83 65 71 83 91 97 95 95 96 97 96 93 92 87 82 83 85 84 88 86 92 88 91 90 86 66 66 61 61 57 54
35 53 72 86 92 93 92 99 95 85 82 78 76 77 82 86 85 69 72 83 84 97 95 93 94 91 89 92 89 86 79 75 80 91 81 87 79 83 80 75 71 69 69 64 62 61 61